User: anonymous   Login
Location: Pallagorio
(39.3000°N, 16.9000°E)
Time: 11:15:21
(UTC+00:00)
Language:

EXPRESS MD2 - Orbit

View from above orbital plane
View from above orbital plane
View from above satellite
View from above satellite

Ground track
Ground track

The orbit data is extracted from the following two-line orbital elements,

1 38745U 12044B   21100.36626380  .00013606  27796-5  33375-3 0  9992
2 38745  49.8874  65.5823 2185714 340.0810  12.6090 11.08875020340212
Epoch (UTC): 10 April 2021 08:47:25
Eccentricity: 0.2185714
inclination: 49.8874°
perigee height: 260 km
apogee height: 3973 km
right ascension of ascending node: 65.5823°
argument of perigee: 340.0810°
revolutions per day: 11.08875020
mean anomaly at epoch: 12.6090°
orbit number at epoch: 34021

The dashed part of the orbit path shows where the satellite is in the earth's shadow,  

DLR